Theta_e
313 337 335 334 334 333 334 335 334 333 332 331 330 330 329 328 329 328 326 323 315 310 317 317 317 317 319 317 317 317 316 315
304 321 336 334 334 333 333 333 332 332 331 330 330 329 329 329 331 329 328 325 318 310 315 317 316 317 319 317 316 316 315 315
299 305 327 335 334 333 334 332 333 332 331 330 329 329 330 330 332 329 329 327 323 314 313 316 317 319 320 318 317 315 315 315
297 299 304 315 334 334 333 333 332 332 331 331 330 331 331 331 329 331 330 330 326 322 316 316 318 319 322 320 316 315 314 315
296 296 298 302 306 322 334 334 332 331 331 330 330 329 330 331 331 330 331 330 329 325 323 320 320 322 323 320 317 315 314 314
295 295 295 298 300 305 326 334 332 331 331 330 330 330 330 331 331 330 332 330 330 330 326 324 323 323 323 322 318 316 315 314
294 293 294 295 296 299 314 332 333 331 331 331 330 329 329 330 331 331 330 330 330 330 329 326 324 324 324 323 319 317 316 316
294 293 293 294 294 296 300 308 323 331 330 331 330 329 330 330 330 330 330 329 329 330 330 327 325 324 324 324 320 317 317 316
293 292 292 292 293 294 296 299 306 318 326 329 329 328 328 328 329 329 328 329 329 330 330 329 328 326 325 324 323 318 317 317
293 292 292 292 292 293 294 295 300 305 314 321 325 326 327 328 329 328 329 329 329 329 330 330 329 329 327 326 325 324 323 322
292 292 291 291 291 292 292 293 296 297 303 308 313 318 320 323 327 327 327 328 328 328 328 329 329 329 328 327 326 325 324 324
292 292 291 291 291 291 291 292 293 295 297 300 304 309 312 317 325 327 328 328 327 327 327 327 328 328 328 327 327 326 325 325
291 291 291 291 291 291 291 291 292 293 294 296 299 301 305 309 314 320 325 328 328 329 328 327 328 327 327 327 327 326 325 326
291 291 291 290 290 290 291 291 292 292 293 294 296 299 301 303 307 310 314 319 326 327 328 327 327 328 328 327 327 327 326 326
290 290 290 290 290 290 290 291 291 291 292 293 295 297 299 301 303 305 308 311 314 322 326 326 326 326 326 327 327 327 327 326
290 290 290 290 290 290 290 290 290 291 292 293 294 296 297 299 301 303 305 307 309 312 317 324 325 325 326 326 326 326 327 326
290 290 290 289 289 289 289 289 290 291 292 294 295 296 297 299 300 302 304 308 310 311 313 316 323 324 325 325 327 327 326 326
289 289 290 289 289 289 289 289 290 292 293 294 295 296 297 298 299 301 303 305 305 306 308 310 314 319 321 323 324 326 327 325
288 288 289 289 289 288 288 289 291 292 293 294 296 297 298 299 300 301 304 306 306 307 308 311 313 317 320 321 322 323 323 323
Wind_Speed
31 27 29 34 31 32 33 34 34 36 33 29 31 30 32 30 29 30 28 26 25 30 34 31 28 23 18 18 23 25 23 21
34 31 26 26 30 31 36 36 36 35 34 32 31 31 29 31 29 32 31 30 27 31 34 32 28 24 20 19 25 25 24 22
33 37 17 28 32 36 33 37 37 39 34 34 27 28 27 28 27 32 33 33 31 32 35 33 30 25 22 23 27 26 22 24
24 35 32 27 22 34 40 41 40 39 36 31 25 25 22 26 26 31 35 34 35 33 36 35 32 29 26 27 29 28 24 26
26 32 34 32 32 17 28 29 35 39 39 35 34 32 29 27 27 28 30 36 36 36 35 35 34 33 30 31 32 32 28 29
20 29 31 29 32 28 6 29 36 35 39 37 34 29 30 26 28 27 31 36 38 39 38 35 34 34 34 31 35 35 33 28
25 29 30 30 31 30 21 11 26 32 37 43 42 36 30 29 32 34 32 35 38 39 38 38 36 34 36 33 36 37 37 36
18 25 28 29 32 33 28 21 10 21 29 34 30 36 28 28 29 33 30 31 34 40 40 38 38 37 34 34 35 38 39 39
15 24 25 27 29 27 27 25 19 15 11 10 15 29 33 30 26 30 31 31 35 39 39 39 37 37 36 35 36 38 38 39
15 22 23 25 24 23 24 22 20 16 11 6 4 5 12 32 36 25 28 29 27 29 31 35 35 36 37 37 37 39 39 40
16 19 21 21 19 19 20 20 17 15 11 6 2 0 1 2 5 13 24 24 24 24 25 30 33 36 36 36 38 40 41 41
12 19 18 17 18 18 19 18 16 15 12 10 7 5 4 2 0 10 15 19 23 25 25 27 30 33 34 34 35 37 38 42
15 17 17 17 18 17 16 16 15 16 14 13 10 9 7 5 3 4 5 15 17 21 21 22 25 30 32 32 33 34 35 37
12 15 16 16 16 16 17 18 17 16 16 14 12 12 11 10 8 8 8 7 13 15 18 21 23 25 28 31 34 35 35 36
11 12 15 15 16 17 17 15 16 18 18 18 15 13 13 13 13 12 12 12 12 11 17 21 24 24 26 27 31 33 34 36
13 12 15 17 19 20 20 18 16 16 16 16 17 18 17 15 15 14 14 14 14 15 15 19 23 26 26 27 27 28 29 31
13 17 19 20 21 21 20 20 18 16 15 16 16 16 18 17 16 14 15 13 13 17 18 19 21 26 26 27 31 31 34 35
9 12 17 18 21 22 21 21 18 15 13 14 15 15 15 15 16 17 15 17 20 23 23 23 24 24 27 30 32 34 31 30
14 19 21 20 19 20 22 19 17 14 14 13 13 14 16 16 16 16 16 15 17 17 19 20 21 18 25 28 30 33 36 33
Wind_Direction
328 211 204 201 197 195 192 194 195 188 189 190 192 199 203 205 206 204 202 201 199 194 192 191 195 198 198 193 190 189 187 185
350 343 207 197 196 194 195 196 198 187 188 188 188 188 192 204 208 207 206 204 202 199 198 199 203 207 205 199 193 193 190 188
353 354 324 197 196 200 194 196 193 193 194 196 196 195 198 204 208 214 212 210 206 204 202 205 209 211 211 202 201 194 198 192
353 352 350 353 227 203 200 198 195 192 194 193 195 191 202 205 210 213 219 216 214 210 210 211 212 216 218 210 204 203 195 197
353 351 348 348 345 338 214 207 196 194 193 193 193 193 203 209 212 214 217 222 220 218 217 216 216 218 219 215 211 209 207 198
347 348 344 343 354 351 295 213 194 196 196 199 196 200 206 212 209 214 212 222 222 220 221 221 221 222 222 222 216 215 216 214
344 346 344 347 356 356 33 203 202 197 194 199 202 210 210 209 204 211 209 215 219 222 222 222 225 225 225 227 224 224 226 227
342 345 344 347 357 356 10 28 107 193 205 206 201 206 216 223 215 212 205 202 209 218 218 221 224 227 230 230 229 228 229 232
342 342 339 348 353 349 7 16 40 89 161 190 212 224 224 233 224 217 209 207 212 218 217 221 225 229 230 233 234 234 235 237
339 338 342 345 341 349 3 8 32 58 75 101 167 210 192 218 219 225 215 220 225 226 226 224 226 232 233 234 236 239 239 242
330 335 338 335 334 355 360 13 15 29 44 41 38 233 282 302 145 213 246 242 240 240 239 237 233 236 239 236 238 242 244 246
322 325 329 332 344 360 359 2 10 16 15 9 355 337 336 360 133 235 240 247 241 251 250 243 246 244 245 245 244 243 243 247
317 323 331 344 348 355 354 356 0 2 358 352 341 331 321 313 248 226 190 231 234 244 252 253 251 249 250 250 251 248 242 247
321 325 342 345 348 354 354 352 349 350 349 345 334 325 321 312 295 283 261 237 230 238 235 246 255 255 256 253 251 249 249 251
327 331 342 344 353 353 352 348 349 343 338 335 333 328 320 313 304 295 286 278 266 253 249 248 245 253 257 257 252 252 252 253
334 336 340 350 0 354 350 345 344 342 334 332 330 322 318 312 304 298 295 290 281 270 259 260 255 248 242 247 249 246 247 248
334 340 343 357 355 350 346 344 342 340 330 322 320 315 314 314 310 306 300 292 281 277 269 262 261 262 252 248 245 243 248 249
319 339 355 355 348 343 340 339 335 335 331 321 317 313 308 306 310 306 300 295 291 283 281 277 272 268 271 267 262 253 249 251
331 341 352 349 343 349 352 348 342 341 336 328 320 312 310 313 308 300 300 303 294 291 294 291 284 280 262 262 265 265 263 258